,,PressureMeas_1m,,PRMeasQMR101_1,,RHStat155_1m_1,,SRMeasQMS101R_1m,,TAStat155_1m_1,,GenWind_1,,GenWind_1,
2018-05-17, 00:00:06,VALID,916.343,VALID,0.0,VALID,98.929,VALID,-0.004,VALID,20.126,VALID,140.0,VALID,0.968,
2018-05-17, 00:01:06,VALID,916.326,VALID,0.0,VALID,98.907,VALID,0.002,VALID,20.133,VALID,137.0,VALID,0.603,
2018-05-17, 00:02:06,VALID,916.321,VALID,0.0,VALID,98.909,VALID,-0.02,VALID,20.142,VALID,130.0,VALID,0.36,
2018-05-17, 00:03:06,VALID,916.318,VALID,0.0,VALID,98.856,VALID,-0.003,VALID,20.082,VALID,101.0,VALID,0.375,
2018-05-17, 00:04:06,VALID,916.289,VALID,0.0,VALID,98.73,VALID,0.008,VALID,19.947,VALID,100.0,VALID,0.0,
2018-05-17, 00:05:06,VALID,916.275,VALID,0.0,VALID,98.661,VALID,0.007,VALID,19.824,VALID,73.0,VALID,0.024,
2018-05-17, 00:06:06,VALID,916.248,VALID,0.0,VALID,98.671,VALID,0.015,VALID,19.763,VALID,74.0,VALID,0.0,
2018-05-17, 00:07:06,VALID,916.232,VALID,0.0,VALID,98.692,VALID,0.008,VALID,19.725,VALID,77.0,VALID,0.0,
2018-05-17, 00:08:06,VALID,916.202,VALID,0.0,VALID,98.658,VALID,0.014,VALID,19.678,VALID,77.0,VALID,0.0,
2018-05-17, 00:09:06,VALID,916.199,VALID,0.0,VALID,98.676,VALID,0.002,VALID,19.627,VALID,42.0,VALID,0.186,
2018-05-17, 00:10:06,VALID,916.203,VALID,0.0,VALID,98.699,VALID,0.03,VALID,19.621,VALID,36.0,VALID,0.343,
2018-05-17, 00:11:06,VALID,916.202,VALID,0.0,VALID,98.679,VALID,0.009,VALID,19.577,VALID,33.0,VALID,0.496,
2018-05-17, 00:12:06,VALID,916.199,VALID,0.0,VALID,98.677,VALID,0.007,VALID,19.551,VALID,21.0,VALID,0.871,
2018-05-17, 00:13:06,VALID,916.196,VALID,0.0,VALID,98.834,VALID,-0.002,VALID,19.668,VALID,22.0,VALID,0.571,
2018-05-17, 00:14:06,VALID,916.192,VALID,0.0,VALID,98.819,VALID,0.01,VALID,19.684,VALID,26.0,VALID,0.377,
2018-05-17, 00:15:06,VALID,916.196,VALID,0.0,VALID,98.836,VALID,0.005,VALID,19.701,VALID,26.0,VALID,0.098,
2018-05-17, 00:16:06,VALID,916.2,VALID,0.0,VALID,98.882,VALID,0.003,VALID,19.749,VALID,26.0,VALID,0.0,
2018-05-17, 00:17:06,VALID,916.186,VALID,0.0,VALID,98.89,VALID,0.016,VALID,19.775,VALID,26.0,VALID,0.0,
2018-05-17, 00:18:06,VALID,916.188,VALID,0.0,VALID,98.909,VALID,0.017,VALID,19.81,VALID,26.0,VALID,0.0,
2018-05-17, 00:19:06,VALID,916.176,VALID,0.0,VALID,98.918,VALID,0.007,VALID,19.831,VALID,26.0,VALID,0.0,
2018-05-17, 00:20:06,VALID,916.162,VALID,0.0,VALID,98.92,VALID,0.011,VALID,19.84,VALID,26.0,VALID,0.0,
2018-05-17, 00:21:06,VALID,916.144,VALID,0.0,VALID,98.918,VALID,0.003,VALID,19.849,VALID,26.0,VALID,0.0,
2018-05-17, 00:22:06,VALID,916.144,VALID,0.0,VALID,98.901,VALID,0.022,VALID,19.835,VALID,26.0,VALID,0.0,
2018-05-17, 00:23:06,VALID,916.13,VALID,0.0,VALID,98.878,VALID,0.007,VALID,19.798,VALID,26.0,VALID,0.0,
2018-05-17, 00:24:06,VALID,916.13,VALID,0.0,VALID,98.892,VALID,0.003,VALID,19.765,VALID,26.0,VALID,0.0,
2018-05-17, 00:25:06,VALID,916.143,VALID,0.0,VALID,98.908,VALID,0.001,VALID,19.741,VALID,26.0,VALID,0.0,
2018-05-17, 00:26:06,VALID,916.165,VALID,0.0,VALID,98.831,VALID,0.008,VALID,19.654,VALID,26.0,VALID,0.0,
2018-05-17, 00:27:06,VALID,916.185,VALID,0.0,VALID,98.788,VALID,0.024,VALID,19.552,VALID,26.0,VALID,0.0,
2018-05-17, 00:28:06,VALID,916.199,VALID,0.0,VALID,98.862,VALID,0.006,VALID,19.561,VALID,19.0,VALID,0.0,
2018-05-17, 00:29:06,VALID,916.202,VALID,0.0,VALID,98.926,VALID,0.005,VALID,19.611,VALID,13.0,VALID,0.0,
2018-05-17, 00:30:06,VALID,916.201,VALID,0.0,VALID,98.723,VALID,0.029,VALID,19.442,VALID,13.0,VALID,0.0,
2018-05-17, 00:31:06,VALID,916.203,VALID,0.0,VALID,98.583,VALID,0.03,VALID,19.222,VALID,13.0,VALID,0.0,
2018-05-17, 00:32:06,VALID,916.19,VALID,0.0,VALID,98.753,VALID,0.013,VALID,19.214,VALID,13.0,VALID,0.0,
2018-05-17, 00:33:06,VALID,916.167,VALID,0.0,VALID,98.906,VALID,0.019,VALID,19.3,VALID,13.0,VALID,0.0,
2018-05-17, 00:34:06,VALID,916.18,VALID,0.0,VALID,98.97,VALID,0.005,VALID,19.406,VALID,13.0,VALID,0.0,
2018-05-17, 00:35:06,VALID,916.171,VALID,0.0,VALID,98.955,VALID,0.003,VALID,19.436,VALID,13.0,VALID,0.0,
2018-05-17, 00:36:06,VALID,916.178,VALID,0.0,VALID,98.875,VALID,-0.004,VALID,19.374,VALID,15.0,VALID,0.0,
2018-05-17, 00:37:06,VALID,916.187,VALID,0.0,VALID,98.785,VALID,-0.011,VALID,19.258,VALID,16.0,VALID,0.0,
2018-05-17, 00:38:06,VALID,916.187,VALID,0.0,VALID,98.885,VALID,-0.004,VALID,19.272,VALID,32.0,VALID,0.0,
2018-05-17, 00:39:06,VALID,916.207,VALID,0.0,VALID,98.893,VALID,-0.006,VALID,19.274,VALID,74.0,VALID,0.0,
2018-05-17, 00:40:06,VALID,916.206,VALID,0.0,VALID,98.874,VALID,-0.008,VALID,19.235,VALID,90.0,VALID,0.0,
2018-05-17, 00:41:06,VALID,916.211,VALID,0.0,VALID,98.817,VALID,-0.007,VALID,19.144,VALID,97.0,VALID,0.0,
2018-05-17, 00:42:06,VALID,916.211,VALID,0.0,VALID,98.84,VALID,0.006,VALID,19.126,VALID,127.0,VALID,0.0,
2018-05-17, 00:43:06,VALID,916.215,VALID,0.0,VALID,98.872,VALID,0.008,VALID,19.113,VALID,174.0,VALID,0.0,
2018-05-17, 00:44:06,VALID,916.209,VALID,0.0,VALID,98.89,VALID,-0.018,VALID,19.132,VALID,184.0,VALID,0.0,
2018-05-17, 00:45:06,VALID,916.218,VALID,0.0,VALID,98.964,VALID,-0.016,VALID,19.264,VALID,194.0,VALID,0.0,
2018-05-17, 00:46:06,VALID,916.209,VALID,0.0,VALID,98.991,VALID,-0.007,VALID,19.342,VALID,196.0,VALID,0.0,
2018-05-17, 00:47:06,VALID,916.208,VALID,0.0,VALID,99.002,VALID,-0.013,VALID,19.383,VALID,196.0,VALID,0.0,
2018-05-17, 00:48:06,VALID,916.221,VALID,0.0,VALID,99.037,VALID,-0.007,VALID,19.438,VALID,196.0,VALID,0.0,
2018-05-17, 00:49:06,VALID,916.207,VALID,0.0,VALID,98.981,VALID,0.013,VALID,19.397,VALID,196.0,VALID,0.0,
2018-05-17, 00:50:06,VALID,916.203,VALID,0.0,VALID,98.781,VALID,0.013,VALID,19.2,VALID,196.0,VALID,0.0,
2018-05-17, 00:51:06,VALID,916.191,VALID,0.0,VALID,98.757,VALID,0.021,VALID,19.027,VALID,196.0,VALID,0.0,
2018-05-17, 00:52:06,VALID,916.171,VALID,0.0,VALID,98.849,VALID,0.027,VALID,18.991,VALID,196.0,VALID,0.0,
2018-05-17, 00:53:06,VALID,916.158,VALID,0.0,VALID,98.929,VALID,0.016,VALID,19.028,VALID,196.0,VALID,0.0,
2018-05-17, 00:54:06,VALID,916.152,VALID,0.0,VALID,98.973,VALID,0.014,VALID,19.066,VALID,138.0,VALID,0.0,
2018-05-17, 00:55:06,VALID,916.14,VALID,0.0,VALID,98.878,VALID,0.015,VALID,18.972,VALID,106.0,VALID,0.538,
2018-05-17, 00:56:06,VALID,916.119,VALID,0.0,VALID,98.865,VALID,0.01,VALID,18.901,VALID,103.0,VALID,0.735,
2018-05-17, 00:57:06,VALID,916.101,VALID,0.0,VALID,98.98,VALID,0.003,VALID,19.002,VALID,102.0,VALID,0.755,
2018-05-17, 00:58:06,VALID,916.085,VALID,0.0,VALID,99.025,VALID,0.011,VALID,19.067,VALID,91.0,VALID,0.74,
2018-05-17, 00:59:06,VALID,916.084,VALID,0.0,VALID,99.001,VALID,0.033,VALID,19.046,VALID,79.0,VALID,0.757,
2018-05-17, 01:00:06,VALID,916.079,VALID,0.0,VALID,98.876,VALID,0.013,VALID,18.922,VALID,73.0,VALID,0.85,
2018-05-17, 01:01:06,VALID,916.096,VALID,0.0,VALID,99.019,VALID,0.021,VALID,18.987,VALID,61.0,VALID,0.949,
2018-05-17, 01:02:06,VALID,916.107,VALID,0.0,VALID,99.026,VALID,0.023,VALID,19.027,VALID,56.0,VALID,1.115,
2018-05-17, 01:03:06,VALID,916.118,VALID,0.0,VALID,99.006,VALID,0.015,VALID,19.029,VALID,62.0,VALID,1.131,
2018-05-17, 01:04:06,VALID,916.144,VALID,0.0,VALID,99.034,VALID,0.001,VALID,19.067,VALID,71.0,VALID,1.048,
2018-05-17, 01:05:06,VALID,916.143,VALID,0.0,VALID,99.089,VALID,-0.025,VALID,19.156,VALID,84.0,VALID,0.795,
2018-05-17, 01:06:06,VALID,916.155,VALID,0.0,VALID,99.101,VALID,-0.042,VALID,19.226,VALID,101.0,VALID,0.73,
2018-05-17, 01:07:06,VALID,916.164,VALID,0.0,VALID,99.067,VALID,-0.034,VALID,19.191,VALID,118.0,VALID,1.065,
2018-05-17, 01:08:06,VALID,916.178,VALID,0.0,VALID,99.022,VALID,-0.013,VALID,19.155,VALID,131.0,VALID,0.636,
2018-05-17, 01:09:06,VALID,916.186,VALID,0.0,VALID,99.017,VALID,-0.017,VALID,19.143,VALID,123.0,VALID,0.966,
2018-05-17, 01:10:06,VALID,916.194,VALID,0.0,VALID,99.044,VALID,-0.031,VALID,19.18,VALID,107.0,VALID,0.869,
2018-05-17, 01:11:06,VALID,916.188,VALID,0.0,VALID,99.08,VALID,-0.018,VALID,19.216,VALID,100.0,VALID,0.852,
2018-05-17, 01:12:06,VALID,916.189,VALID,0.0,VALID,99.074,VALID,-0.012,VALID,19.234,VALID,102.0,VALID,0.572,
2018-05-17, 01:13:06,VALID,916.177,VALID,0.0,VALID,99.079,VALID,-0.022,VALID,19.255,VALID,115.0,VALID,0.837,
2018-05-17, 01:14:06,VALID,916.177,VALID,0.0,VALID,99.111,VALID,-0.026,VALID,19.281,VALID,100.0,VALID,0.963,
2018-05-17, 01:15:06,VALID,916.188,VALID,0.0,VALID,99.104,VALID,-0.027,VALID,19.328,VALID,84.0,VALID,0.963,
2018-05-17, 01:16:06,VALID,916.172,VALID,0.0,VALID,99.068,VALID,-0.029,VALID,19.306,VALID,64.0,VALID,0.747,
2018-05-17, 01:17:06,VALID,916.171,VALID,0.0,VALID,99.013,VALID,-0.038,VALID,19.232,VALID,78.0,VALID,0.725,
2018-05-17, 01:18:06,VALID,916.148,VALID,0.0,VALID,99.082,VALID,0.0,VALID,19.243,VALID,62.0,VALID,0.66,
2018-05-17, 01:19:06,VALID,916.137,VALID,0.0,VALID,99.07,VALID,-0.012,VALID,19.237,VALID,43.0,VALID,0.311,
2018-05-17, 01:20:06,VALID,916.123,VALID,0.0,VALID,99.101,VALID,-0.013,VALID,19.237,VALID,64.0,VALID,0.319,
2018-05-17, 01:21:06,VALID,916.125,VALID,0.0,VALID,99.08,VALID,-0.02,VALID,19.229,VALID,80.0,VALID,0.975,
2018-05-17, 01:22:06,VALID,916.125,VALID,0.0,VALID,99.111,VALID,-0.021,VALID,19.229,VALID,84.0,VALID,1.454,
2018-05-17, 01:23:06,VALID,916.111,VALID,0.0,VALID,99.123,VALID,-0.017,VALID,19.279,VALID,88.0,VALID,1.672,
2018-05-17, 01:24:06,VALID,916.098,VALID,0.0,VALID,99.152,VALID,-0.009,VALID,19.363,VALID,90.0,VALID,1.773,
2018-05-17, 01:25:06,VALID,916.078,VALID,0.0,VALID,99.131,VALID,-0.009,VALID,19.378,VALID,94.0,VALID,1.671,
2018-05-17, 01:26:06,VALID,916.082,VALID,0.0,VALID,99.141,VALID,-0.021,VALID,19.37,VALID,96.0,VALID,1.387,
2018-05-17, 01:27:06,VALID,916.074,VALID,0.0,VALID,99.111,VALID,-0.017,VALID,19.353,VALID,99.0,VALID,1.528,
2018-05-17, 01:28:06,VALID,916.073,VALID,0.0,VALID,99.132,VALID,-0.017,VALID,19.365,VALID,100.0,VALID,1.048,
2018-05-17, 01:29:06,VALID,916.057,VALID,0.0,VALID,99.088,VALID,-0.022,VALID,19.312,VALID,105.0,VALID,0.863,
2018-05-17, 01:30:06,VALID,916.041,VALID,0.0,VALID,99.103,VALID,0.002,VALID,19.293,VALID,110.0,VALID,1.008,
2018-05-17, 01:31:06,VALID,916.033,VALID,0.0,VALID,99.127,VALID,-0.013,VALID,19.322,VALID,115.0,VALID,1.002,
2018-05-17, 01:32:06,VALID,916.021,VALID,0.0,VALID,99.143,VALID,-0.005,VALID,19.352,VALID,111.0,VALID,1.04,
2018-05-17, 01:33:06,VALID,916.029,VALID,0.0,VALID,99.126,VALID,-0.003,VALID,19.33,VALID,111.0,VALID,1.017,
2018-05-17, 01:34:06,VALID,916.016,VALID,0.0,VALID,99.089,VALID,0.006,VALID,19.263,VALID,115.0,VALID,1.139,
2018-05-17, 01:35:06,VALID,916.016,VALID,0.0,VALID,99.11,VALID,0.006,VALID,19.271,VALID,119.0,VALID,1.329,
2018-05-17, 01:36:06,VALID,915.987,VALID,0.0,VALID,99.147,VALID,0.004,VALID,19.349,VALID,122.0,VALID,1.225,
2018-05-17, 01:37:06,VALID,915.978,VALID,0.0,VALID,99.145,VALID,0.008,VALID,19.337,VALID,123.0,VALID,0.914,
2018-05-17, 01:38:06,VALID,915.969,VALID,0.0,VALID,99.151,VALID,0.011,VALID,19.354,VALID,121.0,VALID,1.196,
2018-05-17, 01:39:06,VALID,915.935,VALID,0.0,VALID,99.155,VALID,-0.002,VALID,19.39,VALID,114.0,VALID,1.356,
2018-05-17, 01:40:06,VALID,915.92,VALID,0.0,VALID,99.169,VALID,-0.008,VALID,19.434,VALID,120.0,VALID,1.35,
2018-05-17, 01:41:06,VALID,915.917,VALID,0.0,VALID,99.162,VALID,0.001,VALID,19.442,VALID,125.0,VALID,1.489,
2018-05-17, 01:42:06,VALID,915.908,VALID,0.0,VALID,99.165,VALID,0.02,VALID,19.455,VALID,133.0,VALID,1.329,
2018-05-17, 01:43:06,VALID,915.91,VALID,0.0,VALID,99.184,VALID,-0.005,VALID,19.495,VALID,131.0,VALID,1.281,
2018-05-17, 01:44:06,VALID,915.89,VALID,0.0,VALID,99.177,VALID,0.016,VALID,19.521,VALID,129.0,VALID,1.168,
2018-05-17, 01:45:06,VALID,915.882,VALID,0.0,VALID,99.153,VALID,0.009,VALID,19.501,VALID,127.0,VALID,1.186,
2018-05-17, 01:46:06,VALID,915.864,VALID,0.0,VALID,99.155,VALID,0.003,VALID,19.474,VALID,115.0,VALID,1.409,
2018-05-17, 01:47:06,VALID,915.844,VALID,0.0,VALID,99.122,VALID,-0.003,VALID,19.409,VALID,104.0,VALID,1.159,
2018-05-17, 01:48:06,VALID,915.835,VALID,0.0,VALID,99.13,VALID,0.005,VALID,19.355,VALID,89.0,VALID,1.373,
2018-05-17, 01:49:06,VALID,915.815,VALID,0.0,VALID,99.114,VALID,0.028,VALID,19.305,VALID,78.0,VALID,1.35,
2018-05-17, 01:50:06,VALID,915.794,VALID,0.0,VALID,99.132,VALID,0.024,VALID,19.291,VALID,78.0,VALID,1.315,
2018-05-17, 01:51:06,VALID,915.776,VALID,0.0,VALID,99.144,VALID,0.029,VALID,19.311,VALID,87.0,VALID,1.143,
2018-05-17, 01:52:06,VALID,915.766,VALID,0.0,VALID,99.169,VALID,0.023,VALID,19.324,VALID,88.0,VALID,1.577,
2018-05-17, 01:53:06,VALID,915.746,VALID,0.0,VALID,99.182,VALID,0.024,VALID,19.367,VALID,93.0,VALID,1.723,
2018-05-17, 01:54:06,VALID,915.741,VALID,0.0,VALID,99.16,VALID,0.022,VALID,19.355,VALID,93.0,VALID,1.45,
2018-05-17, 01:55:06,VALID,915.737,VALID,0.0,VALID,99.129,VALID,0.03,VALID,19.328,VALID,91.0,VALID,1.256,
2018-05-17, 01:56:06,VALID,915.725,VALID,0.0,VALID,99.165,VALID,0.019,VALID,19.31,VALID,93.0,VALID,1.162,
2018-05-17, 01:57:06,VALID,915.727,VALID,0.0,VALID,99.161,VALID,0.038,VALID,19.324,VALID,94.0,VALID,1.199,
2018-05-17, 01:58:06,VALID,915.721,VALID,0.0,VALID,99.183,VALID,0.033,VALID,19.348,VALID,89.0,VALID,0.984,
2018-05-17, 01:59:06,VALID,915.719,VALID,0.0,VALID,99.161,VALID,0.02,VALID,19.308,VALID,71.0,VALID,1.09,
2018-05-17, 02:00:06,VALID,915.69,VALID,0.0,VALID,99.168,VALID,0.016,VALID,19.286,VALID,71.0,VALID,1.045,
2018-05-17, 02:01:06,VALID,915.652,VALID,0.0,VALID,99.171,VALID,0.048,VALID,19.309,VALID,77.0,VALID,0.971,
2018-05-17, 02:02:06,VALID,915.617,VALID,0.0,VALID,99.18,VALID,0.027,VALID,19.32,VALID,88.0,VALID,1.055,
2018-05-17, 02:03:06,VALID,915.581,VALID,0.0,VALID,99.167,VALID,0.018,VALID,19.307,VALID,94.0,VALID,0.859,
2018-05-17, 02:04:06,VALID,915.55,VALID,0.0,VALID,99.164,VALID,0.039,VALID,19.298,VALID,86.0,VALID,0.674,
2018-05-17, 02:05:06,VALID,915.512,VALID,0.0,VALID,99.169,VALID,0.027,VALID,19.293,VALID,71.0,VALID,0.512,
2018-05-17, 02:06:06,VALID,915.487,VALID,0.0,VALID,99.141,VALID,0.018,VALID,19.264,VALID,71.0,VALID,0.347,
2018-05-17, 02:07:06,VALID,915.463,VALID,0.0,VALID,99.16,VALID,0.011,VALID,19.255,VALID,73.0,VALID,0.317,
2018-05-17, 02:08:06,VALID,915.445,VALID,0.0,VALID,99.159,VALID,0.017,VALID,19.239,VALID,73.0,VALID,0.322,
2018-05-17, 02:09:06,VALID,915.424,VALID,0.0,VALID,99.156,VALID,0.025,VALID,19.206,VALID,72.0,VALID,0.216,
2018-05-17, 02:10:06,VALID,915.411,VALID,0.0,VALID,99.16,VALID,0.024,VALID,19.21,VALID,49.0,VALID,0.489,
2018-05-17, 02:11:06,VALID,915.403,VALID,0.0,VALID,99.165,VALID,0.022,VALID,19.224,VALID,45.0,VALID,0.576,
2018-05-17, 02:12:06,VALID,915.387,VALID,0.0,VALID,99.202,VALID,0.03,VALID,19.276,VALID,42.0,VALID,0.552,
2018-05-17, 02:13:06,VALID,915.382,VALID,0.0,VALID,99.224,VALID,0.041,VALID,19.325,VALID,50.0,VALID,0.848,
2018-05-17, 02:14:06,VALID,915.37,VALID,0.0,VALID,99.207,VALID,0.021,VALID,19.365,VALID,54.0,VALID,0.989,
2018-05-17, 02:15:06,VALID,915.359,VALID,0.0,VALID,99.202,VALID,0.02,VALID,19.375,VALID,56.0,VALID,0.779,
2018-05-17, 02:16:06,VALID,915.357,VALID,0.0,VALID,99.165,VALID,0.015,VALID,19.346,VALID,45.0,VALID,0.638,
2018-05-17, 02:17:06,VALID,915.35,VALID,0.0,VALID,99.176,VALID,0.023,VALID,19.342,VALID,61.0,VALID,0.138,
2018-05-17, 02:18:06,VALID,915.341,VALID,0.0,VALID,99.176,VALID,0.031,VALID,19.328,VALID,72.0,VALID,0.236,
2018-05-17, 02:19:06,VALID,915.329,VALID,0.0,VALID,99.178,VALID,0.027,VALID,19.324,VALID,70.0,VALID,0.25,
2018-05-17, 02:20:06,VALID,915.325,VALID,0.0,VALID,99.204,VALID,0.009,VALID,19.348,VALID,71.0,VALID,0.03,
2018-05-17, 02:21:06,VALID,915.323,VALID,0.0,VALID,99.197,VALID,0.009,VALID,19.334,VALID,71.0,VALID,0.0,
2018-05-17, 02:22:06,VALID,915.323,VALID,0.0,VALID,99.187,VALID,0.022,VALID,19.318,VALID,71.0,VALID,0.0,
2018-05-17, 02:23:06,VALID,915.339,VALID,0.0,VALID,99.183,VALID,0.0,VALID,19.318,VALID,71.0,VALID,0.0,
2018-05-17, 02:24:06,VALID,915.347,VALID,0.0,VALID,99.17,VALID,0.016,VALID,19.303,VALID,71.0,VALID,0.0,
2018-05-17, 02:25:06,VALID,915.333,VALID,0.0,VALID,99.167,VALID,0.033,VALID,19.279,VALID,71.0,VALID,0.0,
2018-05-17, 02:26:06,VALID,915.323,VALID,0.0,VALID,99.171,VALID,0.021,VALID,19.279,VALID,71.0,VALID,0.0,
2018-05-17, 02:27:06,VALID,915.316,VALID,0.0,VALID,99.187,VALID,0.001,VALID,19.289,VALID,71.0,VALID,0.0,
2018-05-17, 02:28:06,VALID,915.316,VALID,0.0,VALID,99.17,VALID,0.01,VALID,19.276,VALID,71.0,VALID,0.0,
2018-05-17, 02:29:06,VALID,915.309,VALID,0.0,VALID,99.168,VALID,0.013,VALID,19.252,VALID,71.0,VALID,0.0,
2018-05-17, 02:30:06,VALID,915.308,VALID,0.0,VALID,99.101,VALID,0.019,VALID,19.144,VALID,71.0,VALID,0.0,
2018-05-17, 02:31:06,VALID,915.304,VALID,0.0,VALID,99.122,VALID,0.007,VALID,19.087,VALID,71.0,VALID,0.0,
2018-05-17, 02:32:06,VALID,915.304,VALID,0.0,VALID,99.137,VALID,0.004,VALID,19.08,VALID,71.0,VALID,0.0,
2018-05-17, 02:33:06,VALID,915.308,VALID,0.0,VALID,99.166,VALID,0.004,VALID,19.083,VALID,71.0,VALID,0.0,
2018-05-17, 02:34:07,VALID,915.307,VALID,0.0,VALID,99.168,VALID,0.013,VALID,19.109,VALID,102.0,VALID,0.027,
2018-05-17, 02:35:07,VALID,915.278,VALID,0.0,VALID,99.186,VALID,0.007,VALID,19.146,VALID,145.0,VALID,0.0,
2018-05-17, 02:36:07,VALID,915.288,VALID,0.0,VALID,99.209,VALID,0.007,VALID,19.193,VALID,174.0,VALID,0.0,
2018-05-17, 02:37:07,VALID,915.27,VALID,0.0,VALID,99.223,VALID,0.014,VALID,19.238,VALID,177.0,VALID,0.032,
2018-05-17, 02:38:07,VALID,915.251,VALID,0.0,VALID,99.212,VALID,0.011,VALID,19.273,VALID,167.0,VALID,0.0,
2018-05-17, 02:39:07,VALID,915.239,VALID,0.0,VALID,99.208,VALID,0.002,VALID,19.297,VALID,165.0,VALID,0.0,
2018-05-17, 02:40:07,VALID,915.228,VALID,0.0,VALID,99.206,VALID,-0.004,VALID,19.298,VALID,152.0,VALID,0.0,
2018-05-17, 02:41:07,VALID,915.223,VALID,0.0,VALID,99.208,VALID,-0.002,VALID,19.283,VALID,130.0,VALID,0.0,
2018-05-17, 02:42:07,VALID,915.201,VALID,0.0,VALID,99.184,VALID,0.004,VALID,19.263,VALID,117.0,VALID,0.0,
2018-05-17, 02:43:07,VALID,915.18,VALID,0.0,VALID,99.209,VALID,-0.003,VALID,19.257,VALID,117.0,VALID,0.0,
2018-05-17, 02:44:07,VALID,915.176,VALID,0.0,VALID,99.154,VALID,0.016,VALID,19.218,VALID,117.0,VALID,0.0,
2018-05-17, 02:45:07,VALID,915.173,VALID,0.0,VALID,99.159,VALID,-0.004,VALID,19.184,VALID,117.0,VALID,0.0,
2018-05-17, 02:46:07,VALID,915.167,VALID,0.0,VALID,99.2,VALID,0.01,VALID,19.209,VALID,110.0,VALID,0.0,
2018-05-17, 02:47:07,VALID,915.153,VALID,0.0,VALID,99.207,VALID,0.012,VALID,19.243,VALID,99.0,VALID,0.0,
2018-05-17, 02:48:07,VALID,915.138,VALID,0.0,VALID,99.221,VALID,0.001,VALID,19.274,VALID,110.0,VALID,0.0,
2018-05-17, 02:49:07,VALID,915.16,VALID,0.0,VALID,99.204,VALID,0.004,VALID,19.316,VALID,110.0,VALID,0.0,
2018-05-17, 02:50:07,VALID,915.162,VALID,0.0,VALID,99.228,VALID,-0.009,VALID,19.337,VALID,107.0,VALID,0.0,
2018-05-17, 02:51:07,VALID,915.192,VALID,0.0,VALID,99.223,VALID,0.001,VALID,19.334,VALID,108.0,VALID,0.473,
2018-05-17, 02:52:07,VALID,915.204,VALID,0.0,VALID,99.221,VALID,0.0,VALID,19.345,VALID,100.0,VALID,1.127,
2018-05-17, 02:53:07,VALID,915.193,VALID,0.0,VALID,99.285,VALID,-0.012,VALID,19.478,VALID,94.0,VALID,1.08,
2018-05-17, 02:54:07,VALID,915.191,VALID,0.0,VALID,99.25,VALID,-0.007,VALID,19.459,VALID,98.0,VALID,0.923,
2018-05-17, 02:55:07,VALID,915.182,VALID,0.0,VALID,99.208,VALID,-0.011,VALID,19.393,VALID,103.0,VALID,0.995,
2018-05-17, 02:56:07,VALID,915.169,VALID,0.0,VALID,99.167,VALID,-0.01,VALID,19.296,VALID,125.0,VALID,0.941,
2018-05-17, 02:57:07,VALID,915.168,VALID,0.0,VALID,99.2,VALID,-0.006,VALID,19.298,VALID,142.0,VALID,0.788,
2018-05-17, 02:58:07,VALID,915.166,VALID,0.0,VALID,99.236,VALID,-0.002,VALID,19.344,VALID,132.0,VALID,0.951,
2018-05-17, 02:59:07,VALID,915.179,VALID,0.0,VALID,99.216,VALID,-0.0,VALID,19.357,VALID,128.0,VALID,1.248,
2018-05-17, 03:00:07,VALID,915.154,VALID,0.0,VALID,99.226,VALID,-0.009,VALID,19.349,VALID,132.0,VALID,1.184,
2018-05-17, 03:01:07,VALID,915.151,VALID,0.0,VALID,99.213,VALID,-0.016,VALID,19.35,VALID,131.0,VALID,1.15,
2018-05-17, 03:02:07,VALID,915.132,VALID,0.0,VALID,99.228,VALID,-0.026,VALID,19.367,VALID,129.0,VALID,1.161,
2018-05-17, 03:03:07,VALID,915.098,VALID,0.0,VALID,99.209,VALID,-0.003,VALID,19.381,VALID,147.0,VALID,0.144,
2018-05-17, 03:04:07,VALID,915.085,VALID,0.0,VALID,99.211,VALID,-0.002,VALID,19.38,VALID,124.0,VALID,0.27,
2018-05-17, 03:05:07,VALID,915.095,VALID,0.0,VALID,99.209,VALID,0.003,VALID,19.372,VALID,125.0,VALID,0.293,
2018-05-17, 03:06:07,VALID,915.105,VALID,0.0,VALID,99.216,VALID,0.01,VALID,19.367,VALID,131.0,VALID,0.819,
2018-05-17, 03:07:07,VALID,915.121,VALID,0.0,VALID,99.226,VALID,0.007,VALID,19.377,VALID,145.0,VALID,0.522,
2018-05-17, 03:08:07,VALID,915.13,VALID,0.0,VALID,99.203,VALID,0.007,VALID,19.387,VALID,131.0,VALID,0.565,
2018-05-17, 03:09:07,VALID,915.146,VALID,0.0,VALID,99.236,VALID,-0.002,VALID,19.404,VALID,137.0,VALID,0.36,
2018-05-17, 03:10:07,VALID,915.139,VALID,0.0,VALID,99.21,VALID,0.011,VALID,19.42,VALID,154.0,VALID,0.167,
2018-05-17, 03:11:07,VALID,915.153,VALID,0.0,VALID,99.219,VALID,0.016,VALID,19.417,VALID,158.0,VALID,0.189,
2018-05-17, 03:12:07,VALID,915.16,VALID,0.0,VALID,99.218,VALID,-0.004,VALID,19.408,VALID,140.0,VALID,0.323,
2018-05-17, 03:13:07,VALID,915.169,VALID,0.0,VALID,99.228,VALID,-0.003,VALID,19.423,VALID,122.0,VALID,0.921,
2018-05-17, 03:14:07,VALID,915.17,VALID,0.0,VALID,99.225,VALID,0.005,VALID,19.448,VALID,123.0,VALID,0.966,
2018-05-17, 03:15:07,VALID,915.147,VALID,0.0,VALID,99.22,VALID,0.004,VALID,19.468,VALID,146.0,VALID,0.692,
2018-05-17, 03:16:07,VALID,915.123,VALID,0.0,VALID,99.216,VALID,0.014,VALID,19.463,VALID,130.0,VALID,0.844,
2018-05-17, 03:17:07,VALID,915.098,VALID,0.0,VALID,99.208,VALID,0.013,VALID,19.467,VALID,140.0,VALID,0.877,
2018-05-17, 03:18:07,VALID,915.081,VALID,0.0,VALID,99.226,VALID,0.015,VALID,19.483,VALID,143.0,VALID,0.505,
2018-05-17, 03:19:07,VALID,915.075,VALID,0.0,VALID,99.237,VALID,0.03,VALID,19.501,VALID,137.0,VALID,1.202,
2018-05-17, 03:20:07,VALID,915.076,VALID,0.0,VALID,99.243,VALID,0.019,VALID,19.515,VALID,131.0,VALID,1.35,
2018-05-17, 03:21:07,VALID,915.073,VALID,0.0,VALID,99.233,VALID,0.008,VALID,19.527,VALID,129.0,VALID,1.573,
2018-05-17, 03:22:07,VALID,915.059,VALID,0.0,VALID,99.224,VALID,0.024,VALID,19.52,VALID,132.0,VALID,1.584,
2018-05-17, 03:23:07,VALID,915.067,VALID,0.0,VALID,99.238,VALID,0.013,VALID,19.524,VALID,125.0,VALID,1.557,
2018-05-17, 03:24:07,VALID,915.065,VALID,0.0,VALID,99.226,VALID,0.012,VALID,19.515,VALID,126.0,VALID,1.581,
2018-05-17, 03:25:07,VALID,915.065,VALID,0.0,VALID,99.209,VALID,0.017,VALID,19.524,VALID,124.0,VALID,1.346,
2018-05-17, 03:26:07,VALID,915.091,VALID,0.0,VALID,99.215,VALID,0.031,VALID,19.526,VALID,125.0,VALID,1.307,
2018-05-17, 03:27:07,VALID,915.102,VALID,0.0,VALID,99.231,VALID,0.018,VALID,19.523,VALID,132.0,VALID,1.1,
2018-05-17, 03:28:07,VALID,915.107,VALID,0.0,VALID,99.235,VALID,0.007,VALID,19.523,VALID,128.0,VALID,1.151,
2018-05-17, 03:29:07,VALID,915.117,VALID,0.0,VALID,99.22,VALID,0.009,VALID,19.526,VALID,127.0,VALID,0.973,
2018-05-17, 03:30:07,VALID,915.125,VALID,0.0,VALID,99.22,VALID,0.011,VALID,19.527,VALID,162.0,VALID,0.468,
2018-05-17, 03:31:07,VALID,915.146,VALID,0.0,VALID,99.232,VALID,0.017,VALID,19.53,VALID,132.0,VALID,0.317,
2018-05-17, 03:32:07,VALID,915.165,VALID,0.0,VALID,99.222,VALID,0.031,VALID,19.523,VALID,154.0,VALID,0.387,
2018-05-17, 03:33:07,VALID,915.202,VALID,0.0,VALID,99.235,VALID,0.015,VALID,19.528,VALID,157.0,VALID,0.317,
2018-05-17, 03:34:07,VALID,915.227,VALID,0.0,VALID,99.2,VALID,0.004,VALID,19.52,VALID,127.0,VALID,0.423,
2018-05-17, 03:35:07,VALID,915.237,VALID,0.0,VALID,99.214,VALID,-0.025,VALID,19.53,VALID,148.0,VALID,0.69,
2018-05-17, 03:36:07,VALID,915.243,VALID,0.0,VALID,99.214,VALID,-0.023,VALID,19.535,VALID,149.0,VALID,1.012,
2018-05-17, 03:37:07,VALID,915.25,VALID,0.0,VALID,99.214,VALID,-0.021,VALID,19.542,VALID,151.0,VALID,0.234,
2018-05-17, 03:38:07,VALID,915.238,VALID,0.0,VALID,99.212,VALID,-0.013,VALID,19.528,VALID,130.0,VALID,0.812,
2018-05-17, 03:39:07,VALID,915.22,VALID,0.0,VALID,99.215,VALID,-0.009,VALID,19.52,VALID,132.0,VALID,0.571,
2018-05-17, 03:40:07,VALID,915.219,VALID,0.0,VALID,99.222,VALID,-0.01,VALID,19.521,VALID,189.0,VALID,0.055,